Hourly Data Report for June 27, 2017

All times are specified in Local Standard Time (LST). Add 1 hour to adjust for Daylight Saving Time where and when it is observed.

VICTORIA HARBOUR A
BRITISH COLUMBIA

48°25'22.000" N
123°23'15.000" W
     
1018633
YWH

Related Data

No related data is available for this station

Download Data

Hourly Data (June 2017)
Hourly Data Report for June 27, 2017
Temp Definition
°C
Dew Point Temp Definition
°C
Rel Hum Definition
%
Wind Dir Definition
10's deg

Wind Spd Definition
km/h
Visibility Definition
km
Stn Press Definition
kPa
Hmdx Definition


Wind Chill Definition


Weather Definition


TIME
00:00 Legend Double Dagger 13.3 8.9 74 22 2 LegendMM 101.46     LegendNANA
01:00 Legend Double Dagger 13.4 9.2 76 34 3 LegendMM 101.50     LegendNANA
02:00 Legend Double Dagger 12.5 9.1 80 18 2 LegendMM 101.57     LegendNANA
03:00 Legend Double Dagger 11.7 9.7 88 22 5 LegendMM 101.61     LegendNANA
04:00 Legend Double Dagger 12.0 9.8 87 36 2 LegendMM 101.61     LegendNANA
05:00 Legend Double Dagger 11.7 9.5 86 17 4 LegendMM 101.66     LegendNANA
06:00 Legend Double Dagger 12.5 9.9 84 23 3 LegendMM 101.69     LegendNANA
07:00 Legend Double Dagger 13.2 9.2 76 13 10 LegendMM 101.71     LegendNANA
08:00 Legend Double Dagger 13.1 10.0 81 16 5 LegendMM 101.77     LegendNANA
09:00 Legend Double Dagger 13.3 9.9 80 15 9 LegendMM 101.76     LegendNANA
10:00 Legend Double Dagger 13.8 10.7 82 12 12 LegendMM 101.76     LegendNANA
11:00 Legend Double Dagger 13.9 10.9 82 15 15 LegendMM 101.77     LegendNANA
12:00 Legend Double Dagger 15.2 11.1 76 11 14 LegendMM 101.76     LegendNANA
13:00 Legend Double Dagger 14.6 11.3 80 15 13 LegendMM 101.74     LegendNANA
14:00 Legend Double Dagger 16.5 10.9 69 12 14 LegendMM 101.69     LegendNANA
15:00 Legend Double Dagger 15.5 11.2 75 20 13 LegendMM 101.62     LegendNANA
16:00 Legend Double Dagger 15.0 11.0 76 22 8 LegendMM 101.58     LegendNANA
17:00 Legend Double Dagger 15.2 11.0 76 21 11 LegendMM 101.53     LegendNANA
18:00 Legend Double Dagger 16.0 10.9 71 21 9 LegendMM 101.49     LegendNANA
19:00 Legend Double Dagger 15.7 10.2 69 21 17 LegendMM 101.44     LegendNANA
20:00 Legend Double Dagger 14.8 10.3 74 19 12 LegendMM 101.40     LegendNANA
21:00 Legend Double Dagger 15.1 10.2 72 22 19 LegendMM 101.41     LegendNANA
22:00 Legend Double Dagger 13.8 10.4 80 22 10 LegendMM 101.41     LegendNANA
23:00 Legend Double Dagger 14.2 10.5 78 23 5 LegendMM 101.41     LegendNANA

Notes on Data Quality.

Legend

  • E = Estimated
  • M = Missing
  • NA = Not Available
  • ‡ = Partner data that is not subject to review by the National Climate Archives
Date modified: